DW4892 Weather Reports


Display with metric or nautical units.
time (UTC)temp
F
wind
direction
speed
MPH
gust
MPH
rain 1hr
in
rain 24hr
in
rain mn
in
humidity
%
barometer
mb
20180526194956 86 171 2.0 11.0 0.00 0.00 0.00 10 1014.5
20180526193555 87 98 6.0 13.0 0.00 0.00 0.00 9 1014.7
20180526192011 87 109 5.0 12.0 0.00 0.00 0.00 10 1014.9
20180526190431 87 115 4.0 13.0 0.00 0.00 0.00 11 1015.0
20180526184920 86 188 3.0 13.0 0.00 0.00 0.00 10 1015.2
20180526183415 86 269 2.0 9.0 0.00 0.00 0.00 13 1015.6
20180526181958 86 193 5.0 9.0 0.00 0.00 0.00 8 1015.8
20180526180418 85 170 4.0 15.0 0.00 0.00 0.00 8 1016.2
20180526174946 84 251 1.0 11.0 0.00 0.00 0.00 13 1016.3
20180526173407 85 192 3.0 14.0 0.00 0.00 0.00 13 1016.5
20180526172005 85 263 4.0 10.0 0.00 0.00 0.00 12 1016.4
20180526170426 84 259 4.0 10.0 0.00 0.00 0.00 12 1016.6
20180526164825 82 98 1.0 5.0 0.00 0.00 0.00 19 1016.7
20180526163421 81 236 0.0 7.0 0.00 0.00 0.00 22 1017.0
20180526161827 80 246 5.0 9.0 0.00 0.00 0.00 17 1017.0
20180526160417 79 200 5.0 9.0 0.00 0.00 0.00 21 1017.1
20180526154814 76 234 1.0 4.0 0.00 0.00 0.00 32 1017.2
20180526153411 75 286 1.0 5.0 0.00 0.00 0.00 33 1017.3
20180526151826 75 185 0.0 5.0 0.00 0.00 0.00 37 1017.4
20180526150250 73 246 2.0 5.0 0.00 0.00 0.00 34 1017.4
20180526144740 70 219 2.0 5.0 0.00 0.00 0.00 38 1017.4
20180526143332 68 236 3.0 7.0 0.00 0.00 0.00 42 1017.5
20180526141750 66 240 2.0 9.0 0.00 0.00 0.00 47 1017.5
20180526140224 64 220 4.0 8.0 0.00 0.00 0.00 51 1017.4
20180526134817 63 223 2.0 7.0 0.00 0.00 0.00 55 1017.3
20180526133236 62 234 3.0 6.0 0.00 0.00 0.00 56 1017.5
20180526131647 61 186 2.0 6.0 0.00 0.00 0.00 58 1017.2
20180526130245 60 213 4.0 6.0 0.00 0.00 0.00 60 1017.1
20180526124642 59 197 5.0 8.0 0.00 0.00 0.00 62 1017.1
20180526123241 58 205 2.0 6.0 0.00 0.00 0.00 64 1017.0
20180526121700 57 223 2.0 4.0 0.00 0.00 0.00 65 1017.0
20180526120102 57 181 0.0 2.0 0.00 0.00 0.00 65 1016.9
20180526114649 57 181 1.0 4.0 0.00 0.00 0.00 65 1016.8
20180526113117 57 180 1.0 4.0 0.00 0.00 0.00 64 1016.9
20180526111705 57 196 2.0 6.0 0.00 0.00 0.00 65 1016.8
20180526110056 57 209 1.0 4.0 0.00 0.00 0.00 65 1016.8
20180526104643 58 210 0.0 0.0 0.00 0.00 0.00 62 1016.8
20180526103101 59 210 0.0 0.0 0.00 0.00 0.00 61 1016.7
20180526101518 60 210 0.0 4.0 0.00 0.00 0.00 60 1016.8
20180526100135 60 209 3.0 7.0 0.00 0.00 0.00 60 1016.7
20180526094549 61 216 2.0 4.0 0.00 0.00 0.00 58 1016.7
20180526093013 62 209 1.0 5.0 0.00 0.00 0.00 57 1016.7
20180526091603 62 194 3.0 7.0 0.00 0.00 0.00 56 1016.9
20180526090152 63 175 5.0 10.0 0.00 0.00 0.00 55 1016.9
20180526084506 63 200 5.0 10.0 0.00 0.00 0.00 55 1016.8
20180526083059 63 187 6.0 12.0 0.00 0.00 0.00 55 1017.1
20180526081510 63 198 5.0 9.0 0.00 0.00 0.00 53 1017.2
20180526075932 64 182 0.0 7.0 0.00 0.00 0.00 51 1017.4
20180526074518 65 201 2.0 4.0 0.00 0.00 0.00 49 1017.4
20180526072933 66 223 3.0 10.0 0.00 0.00 0.00 49 1017.5
20180526071357 66 188 5.0 14.0 0.00 0.00 0.00 48 1017.7
20180526065924 66 210 5.0 12.0 0.00 0.00 0.00 46 1017.9
20180526064339 67 181 4.0 10.0 0.00 0.00 0.00 44 1018.2
20180526062933 67 186 6.0 12.0 0.00 0.00 0.00 43 1018.3
20180526061348 67 188 5.0 14.0 0.00 0.00 0.00 42 1018.2
20180526055840 68 188 4.0 15.0 0.00 0.00 0.00 41 1018.1
20180526054435 68 193 7.0 12.0 0.00 0.00 0.00 41 1018.2
20180526052856 67 186 6.0 16.0 0.00 0.00 0.00 38 1018.3
20180526051311 68 200 4.0 11.0 0.00 0.00 0.00 37 1018.3
20180526045910 67 194 6.0 10.0 0.00 0.00 0.00 36 1018.4
20180526044330 68 177 5.0 10.0 0.00 0.00 0.00 33 1018.4
20180526042921 68 161 2.0 8.0 0.00 0.00 0.00 31 1018.4
20180526041346 69 182 3.0 7.0 0.00 0.00 0.00 29 1018.4
20180526035822 68 165 3.0 8.0 0.00 0.00 0.00 29 1018.4
20180526034249 68 132 1.0 6.0 0.00 0.00 0.00 29 1018.3
20180526032842 68 157 0.0 5.0 0.00 0.00 0.00 32 1018.1
20180526025721 70 87 0.0 3.0 0.00 0.00 0.00 34 1017.9
20180526024323 70 85 1.0 4.0 0.00 0.00 0.00 33 1017.8
20180526022746 70 66 1.0 4.0 0.00 0.00 0.00 32 1017.7
20180526021210 70 65 0.0 4.0 0.00 0.00 0.00 32 1017.5
20180526015700 71 65 2.0 4.0 0.00 0.00 0.00 33 1017.4
20180526014304 73 68 4.0 8.0 0.00 0.00 0.00 30 1017.3
20180526012711 75 72 7.0 14.0 0.00 0.00 0.00 28 1017.4
20180526011311 76 68 11.0 16.0 0.00 0.00 0.00 25 1017.2
20180526005649 77 100 8.0 12.0 0.00 0.00 0.00 25 1017.4
20180526004249 78 68 9.0 15.0 0.00 0.00 0.00 23 1017.3
20180526002705 79 62 7.0 16.0 0.00 0.00 0.00 23 1017.3
20180526001132 81 66 8.0 13.0 0.00 0.00 0.00 20 1017.3
20180525235722 81 72 8.0 15.0 0.00 0.00 0.00 22 1017.5
20180525234148 81 58 8.0 16.0 0.00 0.00 0.00 20 1017.5
20180525232619 82 67 10.0 16.0 0.00 0.00 0.00 20 1017.6
20180525231221 82 24 6.0 15.0 0.00 0.00 0.00 20 1017.6
20180525225657 82 59 11.0 18.0 0.00 0.00 0.00 19 1017.6
20180525224124 82 80 5.0 14.0 0.00 0.00 0.00 19 1017.8
20180525222543 82 57 9.0 17.0 0.00 0.00 0.00 19 1017.9
20180525221138 82 109 9.0 13.0 0.00 0.00 0.00 19 1018.0
20180525215557 82 49 5.0 16.0 0.00 0.00 0.00 20 1018.3
20180525214020 81 81 6.0 15.0 0.00 0.00 0.00 17 1018.4
20180525212617 82 52 8.0 19.0 0.00 0.00 0.00 21 1018.4
20180525211036 82 74 12.0 16.0 0.00 0.00 0.00 18 1018.6
20180525205627 82 90 7.0 16.0 0.00 0.00 0.00 19 1018.7
20180525204050 82 64 9.0 16.0 0.00 0.00 0.00 18 1018.7
20180525202506 82 37 7.0 12.0 0.00 0.00 0.00 19 1019.0
20180525201102 82 57 4.0 9.0 0.00 0.00 0.00 19 1019.0